This is the latest recevied weather packets stored in our database for station/object K4IR. If no packets are shown the sender has not sent any weather packets the latest 10 day(s).
| Time | Temp. | Humidity | Pressure | Rain* | Wind** | Luminosity | Snow |
|---|---|---|---|---|---|---|---|
| 1777908882 | 22.22° C | 50% | 1018.4 hPa | 0 mm | - | 745 W/m² | - |
| 1777908282 | 22.22° C | 55% | 1018.5 hPa | 0 mm | - | 222 W/m² | - |
| 1777907680 | 21.67° C | 55% | 1018.1 hPa | 0 mm | - | 717 W/m² | - |
| 1777907077 | 22.22° C | 57% | 1018.1 hPa | 0 mm | - | 122 W/m² | - |
| 1777906478 | 22.22° C | 57% | 1018.3 hPa | 0 mm | - | 501 W/m² | - |
| 1777905877 | 21.67° C | 60% | 1018.1 hPa | 0 mm | - | 256 W/m² | - |
| 1777905277 | 21.11° C | 57% | 1018.3 hPa | 0 mm | - | 127 W/m² | - |
| 1777904671 | 21.11° C | 58% | 1018.1 hPa | 0 mm | - | 109 W/m² | - |
| 1777904070 | 21.11° C | 60% | 1018.1 hPa | 0 mm | - | 80 W/m² | - |
| 1777903470 | 20.56° C | 62% | 1018.1 hPa | 0 mm | - | 100 W/m² | - |
| 1777902868 | 20.56° C | 59% | 1018.1 hPa | 0 mm | - | 209 W/m² | - |
| 1777902268 | 20.56° C | 62% | 1018.3 hPa | 0 mm | - | 63 W/m² | - |
| 1777901664 | 20° C | 63% | 1018.6 hPa | 0 mm | - | 343 W/m² | - |
| 1777901064 | 20° C | 67% | 1018.5 hPa | 0 mm | - | 185 W/m² | - |
| 1777900464 | 19.44° C | 70% | 1018.4 hPa | 0 mm | - | 61 W/m² | - |
| 1777899863 | 20° C | 72% | 1018.6 hPa | 0 mm | - | 160 W/m² | - |
| 1777899264 | 18.89° C | 73% | 1018.5 hPa | 0 mm | - | 298 W/m² | - |
| 1777898658 | 20° C | 72% | 1018.4 hPa | 0 mm | - | 237 W/m² | - |
| 1777898053 | 17.78° C | 79% | 1018.2 hPa | 0 mm | - | 196 W/m² | - |
| 1777897451 | 16.11° C | 83% | 1018.2 hPa | 0 mm | - | 79 W/m² | - |
| 1777896849 | 15° C | 92% | 1018.2 hPa | 0 mm | - | 127 W/m² | - |
| 1777896249 | 13.89° C | 99% | 1018.3 hPa | 0 mm | - | 103 W/m² | - |
| 1777895645 | 12.78° C | 99% | 1018.6 hPa | 0 mm | - | 54 W/m² | - |
| 1777895040 | 10° C | 99% | 1018.4 hPa | 0 mm | - | 67 W/m² | - |
| 1777894439 | 8.33° C | 99% | 1018.5 hPa | 0 mm | - | 37 W/m² | - |
* Rain latest hour (hover to see other rain measurements)
** Current wind speed in m/s (hover to see current wind gust speed)